Location: Melizzano
(41.1500°N, 14.5000°E)
Time: 09:18:53
(UTC+00:00)

ATLAS 5 CENTAUR R/B - Pass Details

Date: 11 May 2021
Orbit: 516 x 1141 km, 63.3° (Epoch: 02 May)

Event Time Altitude Azimuth Distance (km) Brightness Sun altitude
Rises 20:41:21 0° 314° (NW) 3,389 6.7 -22.8°
Reaches altitude 10° 20:43:57 10° 303° (WNW) 2,551 5.6 -23.1°
Maximum altitude 20:49:04 30° 245° (WSW) 1,684 3.8 -23.6°
Enters shadow 20:51:47 22° 208° (SSW) 2,044 3.9 -23.9°
